Temp
10 10 10 10 10 10 11 10 12 11 10 12 12 12 12 12 13 12 11 10 10 10 9 9 9 9 9 8 8 8 9 9 9 9 9 9 9 9 9 8 9 9 9 9 9 9 9 9 9
10 10 10 9 10 10 11 10 10 10 11 12 11 11 12 12 12 12 12 10 10 10 9 9 9 9 9 9 9 9 9 9 9 9 9 9 9 9 9 9 9 9 9 9 9 9 9 9 8
10 10 10 9 9 10 11 11 11 10 10 11 12 11 12 12 13 13 12 11 10 9 9 9 9 9 9 9 9 9 9 9 9 9 9 9 9 9 9 9 9 8 8 8 8 8 9 9 9
9 9 10 10 11 10 10 10 11 10 11 11 12 12 12 12 12 13 12 11 10 10 9 9 9 10 10 9 9 9 9 9 9 9 9 9 9 9 9 9 8 8 8 9 9 9 9 8 8
10 9 9 10 10 10 10 11 11 11 10 11 11 12 12 12 12 12 12 11 10 10 9 9 10 10 10 9 9 9 9 9 9 9 9 9 9 9 8 8 8 8 9 9 9 8 8 8 8
10 10 10 11 10 10 11 11 11 12 12 12 11 12 11 10 11 12 11 11 10 10 10 10 10 10 10 9 9 9 9 9 9 9 9 9 9 9 8 8 8 8 8 9 9 9 8 8 8
10 10 10 11 11 10 10 11 10 11 12 11 12 12 11 10 11 11 10 10 10 10 10 10 10 9 9 9 9 9 9 9 9 9 9 9 9 9 9 8 8 8 8 8 9 9 9 8 8
9 10 11 11 11 11 11 10 10 10 11 10 11 12 12 10 11 10 10 10 10 10 10 10 10 9 9 9 9 9 9 9 9 9 9 9 9 9 9 9 9 8 8 8 8 9 9 9 8
9 10 12 11 11 11 11 10 11 10 10 11 10 10 11 11 10 10 10 10 10 10 9 9 9 9 9 9 9 9 9 9 9 9 9 9 9 9 9 8 8 8 8 8 8 8 8 8 8
10 11 12 11 11 11 13 11 11 10 10 11 10 9 9 10 10 10 10 10 10 9 9 9 9 9 9 9 9 9 9 9 8 8 9 9 9 9 9 8 8 8 8 7 7 8 8 9 8
11 13 12 12 10 11 13 12 11 11 10 11 12 12 10 10 10 10 10 9 8 8 9 9 9 9 9 9 9 9 9 9 9 9 9 9 9 9 8 8 8 8 7 7 7 7 7 8 8
11 12 13 12 11 11 13 12 12 11 10 12 11 11 11 10 11 10 9 8 8 8 9 9 8 9 9 9 9 9 10 9 9 8 8 9 9 9 8 7 8 8 7 8 8 7 7 7 8
10 13 12 11 12 11 13 13 12 12 11 11 11 10 10 10 10 9 8 8 8 8 9 9 8 9 9 9 9 9 10 9 9 8 8 9 9 8 8 7 7 7 7 8 7 7 7 7 7
12 11 12 12 12 12 12 12 11 11 11 11 12 10 9 9 10 7 8 8 8 8 8 9 8 9 9 10 10 9 9 10 9 8 8 8 9 8 8 7 7 7 7 7 7 6 7 7 7
11 11 12 13 13 13 13 12 11 11 11 11 11 9 9 8 9 8 8 8 9 9 9 9 8 9 9 10 10 9 9 9 9 9 8 8 8 8 8 8 8 8 8 8 7 7 7 7 7
11 11 12 13 12 13 14 12 11 12 12 12 12 10 9 8 8 8 8 8 8 8 8 8 8 9 8 9 9 10 10 9 9 8 8 9 9 8 9 9 8 8 8 8 7 7 7 6 6
11 11 13 14 14 13 12 13 13 12 12 12 12 11 9 8 8 8 8 8 8 8 8 8 8 9 8 8 9 10 10 9 9 9 9 9 9 8 9 8 8 8 7 7 7 6 6 6 6
10 11 12 13 14 14 13 13 14 13 12 12 12 12 11 10 9 8 8 8 8 8 8 8 8 9 9 8 9 10 10 9 9 9 9 9 9 9 9 8 8 8 8 7 6 6 5 6 6
10 10 11 13 14 13 14 13 14 13 12 12 12 13 12 10 9 8 8 9 8 8 8 8 8 8 9 8 10 10 10 9 10 9 9 9 9 9 9 8 8 8 7 6 6 6 6 6 6
10 10 12 13 13 14 14 14 13 13 13 13 12 12 11 10 9 8 8 9 8 8 8 8 9 10 10 9 10 9 9 9 10 9 10 9 9 9 9 9 8 8 7 7 7 6 6 6 6
10 11 12 12 13 13 13 12 12 12 11 11 10 10 10 10 9 9 9 10 9 8 9 9 10 10 10 10 9 9 8 9 9 9 10 9 9 9 9 9 9 9 8 8 7 7 7 6 6
10 11 12 12 13 14 13 11 11 12 11 11 11 12 12 10 9 9 9 9 9 9 9 10 10 10 10 10 10 10 9 10 10 9 10 10 10 9 9 9 9 9 9 8 7 6 7 7 6
11 12 12 13 13 13 13 14 13 11 11 12 12 14 14 13 11 10 10 10 9 9 9 10 10 10 10 10 11 10 10 10 10 9 10 10 10 10 9 9 10 9 10 9 8 8 8 7 7
11 12 13 13 13 11 13 14 9 12 14 14 13 13 13 13 12 12 10 10 9 9 9 9 10 10 10 10 11 11 10 10 10 10 11 10 11 10 10 9 10 10 10 9 9 9 8 8 8
11 12 11 10 10 8 13 13 15 15 14 14 15 14 14 12 12 12 10 11 10 10 10 10 10 11 11 10 10 11 10 10 11 10 11 10 10 11 10 10 10 10 10 10 10 10 9 9 8
11 12 11 8 7 9 13 13 15 15 16 16 16 13 13 12 12 13 12 12 11 11 12 11 11 11 11 11 11 11 11 10 11 11 11 11 11 10 11 10 10 10 10 10 10 10 10 9 8
11 11 12 12 11 11 13 13 15 14 15 15 16 15 14 13 13 13 13 12 12 12 12 12 12 11 11 11 11 11 11 11 11 11 11 11 11 11 11 11 11 11 11 10 10 10 10 10 10
11 11 11 11 7 9 11 13 13 13 14 14 15 16 15 14 14 14 14 13 13 13 11 12 12 11 12 12 11 11 11 11 11 11 11 11 11 11 11 11 11 11 11 11 11 11 11 11 10
9 9 10 10 10 6 7 11 11 12 13 14 14 15 15 15 14 15 14 14 14 15 14 14 12 11 11 11 11 11 11 10 10 11 11 11 11 11 11 11 11 12 12 11 11 11 11 11 11
7 6 6 9 9 9 10 10 10 11 11 11 12 14 13 13 13 13 13 14 13 13 13 14 14 13 12 11 11 11 11 11 10 11 11 11 11 11 12 12 11 11 12 12 12 11 11 11 11
Height
3163 3165 3167 3168 3174 3169 3168 3168 3167 3168 3170 3172 3174 3175 3176 3175 3176 3180 3178 3181 3185 3189 3190 3194 3196 3199 3201 3202 3204 3206 3207 3208 3210 3210 3210 3210 3210 3210 3210 3209 3209 3209 3208 3208 3208 3208 3208 3209 3209
3165 3166 3167 3168 3171 3169 3170 3167 3150 3169 3172 3171 3173 3177 3177 3177 3177 3177 3178 3183 3187 3191 3193 3195 3198 3201 3202 3203 3205 3207 3208 3209 3211 3211 3211 3211 3210 3210 3209 3209 3209 3208 3209 3208 3208 3208 3209 3209 3210
3166 3168 3169 3168 3169 3170 3170 3167 3166 3170 3169 3175 3174 3176 3177 3178 3178 3178 3181 3184 3188 3193 3195 3197 3199 3202 3203 3205 3207 3208 3209 3210 3211 3212 3212 3212 3211 3211 3210 3210 3209 3209 3209 3209 3209 3209 3209 3210 3211
3167 3170 3170 3169 3168 3167 3168 3167 3168 3166 3167 3174 3175 3177 3177 3179 3179 3181 3184 3187 3190 3194 3197 3199 3201 3203 3205 3207 3209 3209 3210 3211 3212 3213 3212 3212 3212 3211 3211 3211 3211 3211 3210 3209 3209 3210 3211 3212 3214
3168 3169 3169 3168 3165 3166 3164 3165 3168 3167 3167 3169 3175 3176 3175 3177 3181 3184 3186 3189 3193 3195 3198 3200 3202 3205 3207 3209 3210 3211 3211 3212 3213 3213 3212 3213 3213 3212 3212 3213 3213 3213 3212 3211 3210 3211 3212 3213 3215
3168 3169 3169 3168 3166 3166 3161 3165 3166 3171 3171 3173 3175 3175 3176 3178 3181 3184 3188 3191 3195 3198 3199 3202 3204 3206 3208 3210 3211 3212 3212 3213 3214 3214 3214 3213 3213 3213 3213 3214 3214 3215 3215 3213 3212 3212 3213 3216 3217
3168 3169 3168 3169 3169 3167 3162 3166 3167 3171 3173 3174 3176 3177 3178 3181 3185 3187 3190 3193 3196 3199 3201 3203 3206 3207 3209 3211 3212 3213 3213 3214 3215 3215 3215 3214 3214 3214 3215 3216 3216 3216 3217 3217 3217 3217 3218 3218 3219
3168 3169 3167 3168 3168 3167 3166 3169 3169 3172 3173 3175 3177 3178 3178 3181 3186 3189 3191 3194 3197 3200 3202 3204 3207 3209 3211 3212 3213 3214 3215 3215 3216 3216 3216 3215 3215 3216 3216 3218 3219 3220 3219 3218 3220 3221 3221 3222 3223
3167 3167 3168 3168 3168 3169 3167 3166 3170 3173 3174 3175 3178 3181 3182 3182 3186 3190 3191 3194 3196 3199 3202 3205 3208 3210 3212 3213 3214 3216 3217 3217 3217 3217 3218 3218 3218 3218 3218 3220 3222 3223 3222 3222 3222 3223 3224 3226 3226
3166 3166 3168 3169 3171 3171 3170 3170 3169 3173 3173 3176 3178 3179 3181 3182 3185 3189 3192 3194 3196 3199 3203 3206 3209 3212 3213 3214 3216 3218 3219 3219 3219 3219 3219 3220 3219 3220 3221 3222 3223 3224 3225 3225 3225 3225 3225 3228 3229
3164 3165 3168 3171 3171 3172 3172 3168 3168 3171 3173 3175 3177 3177 3178 3180 3183 3189 3192 3196 3198 3200 3204 3206 3209 3212 3214 3215 3217 3220 3220 3219 3220 3220 3220 3222 3221 3222 3223 3224 3225 3226 3227 3227 3227 3227 3227 3228 3230
3163 3164 3166 3170 3171 3172 3173 3171 3169 3169 3174 3175 3178 3179 3179 3181 3183 3188 3192 3195 3197 3200 3203 3206 3209 3212 3215 3217 3219 3220 3222 3221 3221 3222 3222 3223 3223 3223 3224 3225 3226 3228 3229 3229 3229 3229 3230 3230 3231
3162 3163 3165 3169 3169 3171 3173 3169 3169 3171 3172 3174 3178 3180 3181 3182 3185 3189 3194 3198 3199 3201 3202 3207 3210 3213 3216 3218 3220 3221 3221 3223 3222 3223 3224 3225 3224 3224 3227 3227 3228 3229 3231 3230 3229 3231 3232 3233 3234
3161 3162 3166 3168 3169 3170 3170 3173 3168 3170 3171 3174 3177 3179 3180 3182 3185 3190 3194 3196 3199 3203 3205 3207 3210 3213 3217 3219 3220 3222 3222 3224 3222 3223 3225 3226 3226 3228 3228 3228 3228 3229 3231 3231 3230 3231 3232 3234 3236
3160 3160 3161 3167 3165 3167 3168 3170 3169 3170 3170 3174 3178 3179 3181 3183 3186 3190 3194 3196 3200 3203 3206 3208 3211 3214 3216 3219 3221 3222 3224 3224 3224 3224 3226 3227 3227 3228 3229 3229 3229 3230 3231 3233 3233 3234 3233 3235 3236
3157 3159 3159 3164 3166 3167 3170 3168 3170 3169 3171 3175 3176 3178 3181 3185 3188 3193 3194 3197 3199 3202 3205 3207 3210 3214 3217 3220 3222 3223 3225 3225 3225 3225 3228 3229 3228 3230 3229 3229 3230 3229 3231 3232 3233 3234 3235 3235 3236
3154 3156 3159 3159 3164 3165 3169 3167 3168 3169 3171 3174 3174 3177 3180 3185 3189 3193 3194 3196 3200 3204 3206 3209 3211 3214 3218 3219 3222 3223 3225 3226 3226 3227 3229 3230 3230 3230 3230 3230 3231 3231 3231 3233 3234 3235 3235 3236 3237
3152 3155 3157 3159 3165 3164 3164 3164 3165 3166 3170 3171 3170 3173 3176 3180 3185 3191 3193 3196 3200 3204 3207 3210 3212 3214 3219 3221 3221 3224 3225 3227 3227 3229 3229 3230 3230 3231 3231 3232 3232 3232 3233 3233 3235 3236 3236 3238 3239
3151 3153 3153 3153 3159 3163 3161 3160 3161 3164 3167 3169 3169 3171 3173 3177 3184 3189 3192 3197 3199 3203 3206 3209 3212 3214 3218 3219 3221 3223 3224 3228 3229 3229 3230 3230 3230 3231 3232 3232 3233 3233 3232 3234 3236 3237 3238 3239 3240
3149 3152 3150 3150 3156 3158 3155 3154 3158 3160 3164 3167 3169 3171 3173 3177 3181 3185 3188 3191 3196 3202 3205 3208 3211 3213 3217 3220 3222 3224 3226 3229 3231 3230 3232 3231 3231 3231 3232 3232 3233 3234 3233 3234 3236 3238 3238 3240 3241
3145 3148 3148 3150 3153 3153 3150 3154 3159 3160 3163 3164 3167 3170 3170 3174 3181 3184 3185 3190 3196 3199 3203 3206 3210 3213 3216 3219 3221 3222 3225 3227 3228 3231 3232 3232 3233 3232 3233 3234 3234 3235 3234 3234 3235 3237 3238 3240 3241
3142 3145 3146 3147 3151 3153 3152 3153 3153 3156 3160 3162 3166 3168 3171 3170 3175 3182 3182 3187 3192 3197 3201 3205 3208 3211 3215 3218 3220 3222 3225 3227 3229 3231 3232 3233 3234 3233 3235 3235 3235 3235 3234 3234 3236 3236 3238 3240 3242
3139 3142 3144 3145 3146 3148 3151 3152 3150 3154 3156 3157 3159 3161 3161 3165 3169 3176 3179 3185 3190 3195 3198 3202 3206 3209 3213 3216 3219 3221 3224 3227 3229 3231 3232 3232 3234 3234 3235 3236 3236 3236 3236 3236 3236 3237 3239 3241 3242
3137 3139 3140 3140 3142 3143 3144 3148 3148 3147 3145 3151 3153 3157 3161 3160 3165 3171 3175 3182 3187 3191 3195 3198 3201 3206 3210 3213 3217 3220 3222 3225 3227 3229 3231 3231 3233 3234 3235 3236 3237 3236 3238 3238 3238 3239 3240 3241 3243
3133 3135 3137 3139 3139 3141 3140 3144 3143 3145 3146 3147 3148 3150 3155 3158 3164 3168 3171 3176 3181 3185 3189 3193 3197 3201 3206 3210 3214 3218 3220 3223 3226 3229 3230 3231 3232 3234 3235 3236 3238 3238 3239 3239 3240 3240 3241 3242 3244
3128 3131 3133 3139 3140 3138 3137 3140 3142 3144 3144 3143 3143 3149 3152 3155 3161 3166 3168 3171 3174 3180 3185 3189 3193 3197 3202 3207 3211 3216 3219 3221 3223 3226 3229 3231 3232 3234 3235 3236 3238 3239 3239 3240 3241 3242 3242 3243 3245
3124 3127 3131 3131 3133 3137 3137 3137 3139 3140 3140 3140 3142 3145 3150 3152 3156 3159 3165 3167 3170 3175 3180 3184 3190 3195 3198 3202 3207 3212 3216 3218 3221 3224 3226 3228 3231 3232 3234 3236 3237 3239 3239 3241 3241 3243 3243 3244 3245
3123 3127 3128 3128 3134 3139 3137 3139 3139 3133 3133 3133 3135 3139 3144 3147 3152 3155 3158 3163 3166 3172 3177 3181 3186 3190 3195 3199 3202 3207 3212 3216 3219 3221 3224 3227 3229 3230 3233 3235 3236 3237 3239 3240 3241 3242 3244 3244 3245
3120 3123 3125 3127 3129 3133 3141 3144 3142 3134 3130 3128 3128 3131 3138 3140 3146 3149 3152 3159 3163 3169 3173 3177 3181 3186 3190 3193 3198 3202 3206 3210 3214 3217 3221 3224 3226 3228 3231 3233 3235 3237 3238 3239 3240 3241 3243 3244 3245
3121 3121 3121 3122 3128 3130 3133 3140 3137 3134 3129 3124 3120 3121 3126 3136 3146 3149 3154 3159 3162 3166 3170 3173 3178 3180 3185 3190 3193 3196 3201 3206 3209 3213 3217 3220 3222 3225 3227 3230 3232 3235 3236 3237 3239 3240 3241 3243 3244
Wind_Speed
11 10 9 6 2 1 2 4 29 16 17 14 16 19 22 13 17 3 26 28 28 27 28 25 23 21 18 15 15 13 10 10 11 10 9 9 9 9 9 7 6 6 6 7 7 8 7 8 8
8 8 7 2 1 1 4 7 14 8 16 21 21 19 19 19 6 15 29 30 27 26 25 22 20 19 16 15 14 12 12 11 10 10 9 9 9 8 7 6 6 7 9 10 9 9 10 10 10
5 4 5 1 2 1 1 15 3 23 21 18 16 17 16 12 8 28 29 31 28 25 22 20 18 16 15 14 14 13 12 10 10 9 9 9 8 7 8 8 9 11 12 11 9 8 9 12 13
4 2 4 3 5 8 6 7 21 23 23 16 13 14 16 18 17 26 29 29 27 23 20 18 16 14 15 14 13 12 11 11 10 10 9 8 8 8 11 12 15 15 13 12 10 10 10 13 16
7 3 2 6 8 5 4 10 23 13 7 10 10 9 12 23 30 24 29 26 23 21 19 17 16 16 15 13 12 12 13 12 11 11 8 7 8 11 14 15 16 15 14 12 14 17 18 18 20
5 4 4 6 6 3 10 12 16 17 10 11 7 12 28 33 30 27 28 24 21 18 18 16 16 16 14 13 12 12 13 12 12 10 10 12 12 14 14 15 17 16 16 16 17 19 20 19 20
4 3 4 8 11 2 13 2 18 19 15 14 9 24 33 28 26 27 27 24 22 18 15 16 16 15 14 14 13 13 13 12 11 11 13 14 14 16 16 16 17 18 18 18 17 18 20 21 22
5 4 4 10 14 10 4 15 17 11 8 15 12 17 28 30 28 27 27 24 22 18 16 15 15 14 14 14 14 13 12 11 13 13 13 15 17 16 17 16 14 16 19 20 19 17 19 20 20
3 2 4 7 12 21 2 6 12 14 9 7 8 9 10 28 28 28 26 29 23 18 15 15 15 15 15 15 14 12 11 12 14 14 14 15 19 17 16 17 17 15 16 18 18 17 15 18 17
10 4 9 9 12 9 5 6 10 18 15 12 12 16 17 22 27 26 28 25 18 14 14 14 15 15 16 16 15 12 11 12 14 12 13 15 17 19 18 17 18 18 16 16 14 14 12 15 15
13 8 0 4 15 7 11 8 10 15 18 15 16 13 18 21 25 24 20 18 11 13 16 15 17 17 17 16 13 13 13 13 12 10 11 14 16 16 18 15 15 14 15 12 12 15 12 13 13
13 7 4 9 21 4 7 10 13 19 16 14 11 6 12 21 25 24 19 17 18 15 16 16 18 19 17 16 15 12 13 13 12 11 9 9 12 13 16 17 12 10 12 12 17 12 14 8 7
11 4 7 18 12 12 11 5 11 15 19 15 13 15 12 21 25 22 17 16 17 14 18 18 19 19 17 17 16 13 12 12 14 12 10 8 13 12 10 13 10 9 13 11 11 9 12 9 11
5 11 14 16 16 12 5 3 13 11 18 12 19 16 20 25 25 25 22 21 15 16 22 20 19 18 17 17 16 17 16 15 15 14 9 5 9 10 8 9 10 7 10 10 15 15 7 7 13
14 20 16 11 18 15 10 11 11 11 18 15 19 15 30 33 30 26 20 18 14 17 19 16 16 18 19 16 16 20 20 17 14 12 8 5 7 8 6 7 7 11 10 10 15 12 11 10 13
15 16 14 7 10 16 10 6 11 7 10 14 14 15 23 35 36 26 23 17 10 10 9 13 15 15 17 16 15 19 20 17 15 13 8 7 7 3 5 5 9 11 4 8 13 15 16 15 14
15 13 11 13 13 12 13 11 13 8 10 8 11 14 23 35 36 31 26 21 16 10 11 14 14 17 19 16 17 17 16 15 14 14 12 9 6 5 8 10 12 10 8 4 18 15 16 14 13
16 14 14 12 12 13 20 23 17 14 16 13 12 8 23 31 34 31 33 29 23 17 14 13 16 19 21 18 19 20 17 14 14 12 11 10 7 8 9 7 9 9 9 9 14 11 16 16 14
16 18 20 17 10 16 23 31 25 19 20 9 16 12 17 32 35 34 33 29 31 23 22 17 18 25 21 24 20 17 16 14 12 14 11 8 6 6 8 7 9 8 12 13 12 11 14 13 11
18 17 19 19 11 16 15 36 29 23 15 18 9 15 16 26 35 37 39 27 35 28 24 22 21 26 22 24 23 13 16 12 16 12 11 11 8 6 7 8 7 9 11 10 11 14 11 12 12
17 18 16 20 18 20 8 22 26 27 21 26 17 19 22 25 33 35 38 34 33 33 26 22 21 23 22 24 24 21 22 21 15 16 14 11 11 8 6 8 7 7 10 9 14 14 14 11 10
23 16 21 23 20 14 8 5 30 28 27 27 19 15 23 31 34 33 39 30 37 38 31 22 20 22 24 25 26 24 23 19 15 13 12 12 10 10 7 8 8 8 8 10 11 11 10 12 12
21 13 18 20 19 16 9 7 8 29 33 31 31 23 11 28 29 37 39 37 36 35 33 24 22 23 28 27 26 23 22 22 20 17 16 12 12 12 9 8 8 8 8 10 10 12 11 11 16
18 20 19 24 20 6 6 6 9 25 32 35 34 28 21 25 29 30 31 30 40 39 34 29 25 26 29 29 26 23 20 20 21 21 17 15 13 11 12 9 8 8 8 9 8 11 10 12 16
21 20 6 5 3 5 7 7 10 9 18 31 25 26 21 27 36 32 42 32 32 32 28 28 26 27 29 29 28 26 23 22 21 19 16 17 15 12 12 12 11 9 9 9 7 9 10 12 16
11 20 13 6 2 3 13 5 9 10 14 16 18 27 31 27 36 31 27 27 24 26 22 23 27 29 30 32 29 27 26 24 22 19 16 16 16 15 14 13 14 12 10 9 8 9 9 13 14
12 12 13 21 7 2 5 11 6 10 10 27 24 27 33 28 38 33 29 28 17 21 23 21 24 28 30 32 31 29 27 26 24 20 17 13 15 15 15 15 15 14 13 12 11 8 9 9 11
16 15 7 7 4 4 4 8 15 26 23 20 30 30 30 35 28 26 29 28 22 17 20 20 24 28 27 30 32 32 30 28 25 22 19 16 16 15 14 16 16 17 15 14 13 11 9 9 9
2 3 7 6 2 5 3 2 12 14 17 18 16 27 34 41 34 23 29 30 20 19 19 21 25 28 31 31 33 34 34 33 30 27 24 21 19 18 16 16 17 15 16 15 15 14 13 10 9
5 12 11 3 4 5 5 6 13 17 18 11 8 19 31 43 39 33 26 20 24 21 25 25 26 29 31 33 33 35 34 34 34 31 27 24 21 20 17 15 12 15 16 15 15 16 16 15 12
Wind_Direction
156 156 161 158 223 124 25 152 149 160 143 167 146 170 161 163 158 152 152 153 150 152 146 145 144 141 135 134 139 141 132 125 123 119 118 113 107 107 107 103 101 100 106 113 120 123 128 128 125
147 155 168 169 133 42 65 158 136 119 163 168 156 168 172 165 176 170 160 153 153 154 150 148 147 144 142 137 135 137 131 126 121 122 114 104 96 92 88 84 88 98 108 107 111 112 113 118 126
135 150 152 194 302 72 85 139 177 143 146 175 171 187 195 194 168 168 158 155 157 157 151 150 148 146 142 136 137 135 132 128 124 119 106 98 88 81 77 83 97 101 102 102 105 112 117 121 124
155 180 45 359 339 282 267 176 166 161 157 177 196 177 198 177 162 165 159 158 160 162 155 156 150 145 140 137 138 137 131 126 123 114 109 92 83 85 90 91 93 94 95 97 99 106 108 122 122
161 88 32 337 354 306 213 166 177 233 148 165 177 227 199 170 159 161 162 161 166 166 164 162 153 149 142 140 140 136 130 127 121 112 98 87 94 103 104 96 96 93 91 88 95 105 112 125 127
164 92 20 360 356 353 132 164 173 167 143 164 185 201 146 151 163 160 156 161 168 169 165 160 154 149 145 138 140 138 133 127 117 107 98 92 97 114 115 103 99 96 92 92 101 112 114 120 125
142 91 30 25 29 312 168 295 166 166 151 138 150 158 147 158 163 157 156 166 166 168 167 158 158 154 145 141 145 144 137 129 118 113 108 99 108 116 112 109 108 105 95 85 93 103 111 121 124
106 93 14 25 22 17 137 153 171 183 165 145 141 160 162 164 166 158 164 169 166 168 164 162 162 156 147 144 146 150 140 130 121 117 114 107 104 106 108 109 107 103 99 96 88 92 104 112 117
154 236 27 22 11 6 74 162 201 187 182 159 155 160 182 171 170 168 169 171 169 164 164 169 168 166 156 154 154 155 142 137 126 118 114 108 103 104 103 103 101 100 102 99 99 99 108 111 115
193 211 72 52 357 14 62 213 205 196 202 192 172 166 182 194 183 180 177 176 161 170 172 175 175 172 164 163 161 155 143 141 135 117 112 107 103 107 104 101 106 107 104 94 96 100 106 112 114
185 169 191 48 306 315 333 250 238 207 201 206 201 197 191 197 193 183 171 168 177 186 185 180 179 177 172 169 161 153 151 146 143 130 122 118 117 116 105 117 115 112 99 100 108 99 113 94 93
203 186 40 12 297 265 352 316 198 179 190 209 191 222 211 197 197 183 176 171 186 193 193 187 179 182 178 169 160 158 152 142 122 131 123 142 136 124 112 112 112 121 109 116 129 114 117 102 111
222 142 318 311 270 249 337 16 208 198 209 218 212 194 226 204 199 184 179 182 200 205 196 183 182 180 183 173 165 156 153 143 135 115 115 105 118 110 104 115 122 102 117 115 124 137 131 121 113
186 275 295 287 259 251 14 302 176 204 231 227 209 199 201 198 202 183 183 192 215 173 174 173 177 180 194 182 171 160 165 152 132 126 121 109 101 110 136 118 133 120 132 126 115 126 118 138 136
272 280 287 266 249 234 284 277 205 233 247 218 209 189 192 191 198 188 183 205 214 150 152 168 176 177 193 189 172 171 163 152 139 126 131 113 86 89 150 143 136 115 116 144 140 126 129 115 119
260 254 276 242 214 245 254 207 214 245 222 199 206 191 200 195 195 179 184 211 206 188 185 188 200 184 188 202 200 178 158 158 140 128 135 113 98 134 112 112 122 119 113 96 138 142 139 135 114
250 261 237 235 222 248 230 226 225 194 167 229 210 213 202 197 193 179 193 210 207 222 210 199 206 196 183 200 189 173 172 158 150 151 146 138 145 135 110 131 142 130 132 106 146 143 134 125 105
245 240 240 255 204 236 236 236 245 215 216 240 186 215 205 191 190 184 195 210 206 231 227 216 212 211 194 204 197 184 162 170 158 154 154 156 138 123 139 133 143 165 152 125 147 153 111 119 117
241 250 257 242 251 296 269 234 234 218 218 246 187 198 201 196 180 181 197 209 212 230 239 241 226 216 206 208 195 180 164 170 172 152 161 156 154 167 138 140 156 161 145 141 144 152 141 136 129
236 249 260 281 296 315 296 230 223 215 222 183 205 200 182 191 186 181 201 222 206 233 241 238 220 213 208 206 200 181 180 190 183 174 162 161 162 160 140 144 136 142 153 170 166 159 147 154 150
238 247 257 276 309 314 319 209 213 213 194 189 204 210 196 191 196 190 206 212 215 229 244 232 213 212 200 205 203 187 195 195 189 191 173 168 163 148 138 136 145 140 144 160 170 166 171 195 158
256 234 265 281 288 310 252 204 205 208 192 197 196 176 220 203 199 205 210 212 220 228 244 235 219 204 206 209 207 200 196 197 179 184 182 172 171 150 161 138 125 114 142 142 170 156 179 171 139
253 248 259 274 294 308 243 241 245 209 203 210 205 208 255 213 207 207 223 221 225 231 240 236 225 211 206 216 210 208 203 204 194 196 194 180 180 159 166 146 130 115 126 140 135 148 155 156 149
255 270 260 269 282 287 281 242 208 207 231 221 217 210 207 224 216 212 221 232 226 235 241 240 228 219 207 215 215 208 204 211 200 199 200 191 184 172 168 157 139 126 116 131 134 123 137 163 157
244 245 243 292 267 208 290 328 254 264 244 239 251 228 215 226 217 214 211 228 235 233 240 233 223 219 208 214 218 213 204 206 205 209 207 204 190 182 178 160 155 151 140 130 133 134 138 143 144
252 236 217 195 190 272 279 215 259 299 285 273 269 236 223 233 213 216 219 220 233 235 232 232 222 217 212 214 220 220 212 210 205 204 213 221 194 188 188 178 162 164 157 154 150 150 150 143 170
236 229 237 250 251 342 297 285 305 70 322 263 255 229 223 234 216 222 217 220 222 238 233 227 221 221 217 216 218 221 223 218 216 209 207 205 207 201 194 193 176 173 174 171 171 168 161 156 153
224 239 225 244 138 179 271 301 316 320 320 335 241 241 218 215 213 224 221 217 208 222 235 243 231 222 221 221 221 221 223 226 224 221 214 210 203 206 213 212 196 183 187 183 182 181 181 172 164
215 8 215 211 150 140 124 319 19 343 321 318 285 247 231 211 205 226 220 214 211 213 219 226 231 235 221 221 222 224 221 223 225 225 222 215 213 214 207 211 214 205 192 192 191 188 190 193 185
335 64 52 249 165 117 101 144 62 15 15 2 285 237 231 211 210 218 212 228 253 241 236 225 227 217 223 223 223 226 224 222 225 227 225 223 224 223 216 212 207 212 204 198 199 198 194 198 196